World > North America > United States > Iowa > Independence   City of Independence, IA

Independence, IA Hourly Weather Updates

Feedback E-mail the Weather

Quick Clicks

Independence, IA Weather Maps

°F °C°F °C
Independence Weather Map
UTC Time: 5/30/2024, 12:23
Your Time:

Independence, IA Regional Weather

Expires:202405301300;;136147
ASUS43 KDMX 301206
RWRIA 

WEATHER ROUNDUP FOR IOWA
NATIONAL WEATHER SERVICE DES MOINES IA
700 AM CDT THU MAY 30 2024

NOTE: "FAIR" INDICATES FEW OR NO CLOUDS BELOW 12,000 FEET WITH NO
SIGNIFICANT WEATHER AND/OR OBSTRUCTIONS TO VISIBILITY.

* - THESE STATIONS ARE NOT NWS STATIONS...THUS NOT UNDER NWS
QUALITY CONTROL.  THEY ALSO DO NOT REPORT WEATHER SUCH 
AS PRECIPITATION OR FOG.  


IAZ007>011-017>019-026>030-037>042-050>054-066-301300-
   NORTHEAST IOWA
  
CITY           SKY/WX    TMP DP  RH WIND       PRES   REMARKS
CEDAR RAPIDS   MOSUNNY   55  50  83 SE7       30.20R TC  13           
6HR MIN TEMP:  51; 6HR MAX TEMP:  55;                                

CHARLES CITY * MOSUNNY   55  55 100 SE12      30.19R TC  13           
CLINTON *      SUNNY     54  44  69 E7        30.25R TC  12           
DECORAH *      SUNNY     54  50  87 S8        30.20R TC  12           
DUBUQUE        SUNNY     55  43  63 S9        30.24R TC  13           
6HR MIN TEMP:  50; 6HR MAX TEMP:  58;                                

MONTICELLO *   SUNNY     55  45  67 SE6       30.22R TC  13           
OELWEIN *      SUNNY     55  50  82 SE14      30.21S TC  13           
WATERLOO       MOSUNNY   58  49  72 SE10      30.18S TC  14           
6HR MIN TEMP:  52; 6HR MAX TEMP:  58;                                

$$
 

SKY/WX - Weather  TMP - Temperature  DP - Dew Point  RH - Humidity
WIND - Wind Direction/Speed PRES - Barometric Pressure VSB - Visibility
WCI - Wind Chill Index E13G22 Wind - East Wind 13 mph/Gusts of 22 mph

Trending Headlines

Trending Entertainment Headlines

Independence Radar Loop

Use the map search tool if you want to place a location marker on the radar map...

Independence Quick Facts

National Two Day Weather Forecast


E-mail the Independence Weather Forecast

Voice your opinion or tell us about page issues...